EWG19E EDDH-EDLV

Flight info

Callsign EWG19E
Flight time 0h 35m
Altitude 24000
Route HABFU1G/33 HABFU Y348 MAWEQ Z718 SUVOX DCT SOBTU SOBTU1W
Aircraft A21N/M-SDE2E3FGHIRWXY/LB1

Departure

Time 2026-04-25 19:31
Airport Hamburg Helmut Schmidt Airport (EDDH)

Arrival

Time 2026-04-25 20:07
Airport Weeze (Niederrhein) Airport (EDLV)
Time Latitude Longitude Altitude Speed Heading
2026-04-25 19:21 53.62734 10.00294 49 ft 0 kts 63°
2026-04-25 19:27 53.62731 10.00284 54 ft 2 kts 46°
2026-04-25 19:27 53.62720 10.00253 49 ft 2 kts 67°
2026-04-25 19:27 53.62715 10.00227 50 ft 2 kts 76°
2026-04-25 19:28 53.62713 10.00200 49 ft 2 kts 99°
2026-04-25 19:28 53.62717 10.00182 52 ft 0 kts 145°
2026-04-25 19:28 53.62716 10.00183 52 ft 0 kts 153°
2026-04-25 19:29 53.62688 10.00207 52 ft 8 kts 153°
2026-04-25 19:29 53.62630 10.00257 53 ft 6 kts 153°
2026-04-25 19:29 53.62625 10.00260 53 ft 2 kts 155°
2026-04-25 19:29 53.62616 10.00266 50 ft 2 kts 160°
2026-04-25 19:30 53.62592 10.00252 49 ft 7 kts 214°
2026-04-25 19:30 53.62552 10.00152 50 ft 15 kts 238°
2026-04-25 19:30 53.62538 10.00104 50 ft 16 kts 252°
2026-04-25 19:30 53.62571 10.00005 50 ft 10 kts 333°
2026-04-25 19:31 53.62757 9.99831 50 ft 67 kts 333°
2026-04-25 19:31 53.63435 9.99252 48 ft 148 kts 333°
2026-04-25 19:31 53.64416 9.98440 565 ft 164 kts 330°
2026-04-25 19:31 53.65479 9.97580 1387 ft 167 kts 332°
2026-04-25 19:32 53.66513 9.96755 2282 ft 173 kts 332°
2026-04-25 19:32 53.67690 9.95798 2720 ft 203 kts 333°
2026-04-25 19:32 53.69024 9.94713 3452 ft 217 kts 333°
2026-04-25 19:32 53.69925 9.93979 4122 ft 218 kts 333°
2026-04-25 19:33 53.71563 9.91988 5408 ft 226 kts 307°
2026-04-25 19:33 53.72036 9.89390 6511 ft 238 kts 276°
2026-04-25 19:33 53.71643 9.86609 7607 ft 251 kts 257°
2026-04-25 19:33 53.70944 9.83868 8709 ft 255 kts 256°
2026-04-25 19:34 53.70257 9.81120 9549 ft 259 kts 258°
2026-04-25 19:34 53.69602 9.78285 10001 ft 260 kts 259°
2026-04-25 19:34 53.68977 9.75377 10394 ft 270 kts 261°
2026-04-25 19:34 53.68348 9.72231 10872 ft 290 kts 261°
2026-04-25 19:35 53.67702 9.68939 11649 ft 299 kts 261°
2026-04-25 19:35 53.67039 9.65565 12583 ft 305 kts 261°
2026-04-25 19:35 53.66372 9.62186 13496 ft 310 kts 261°
2026-04-25 19:35 53.65554 9.58737 14347 ft 324 kts 253°
2026-04-25 19:36 53.64237 9.55500 15158 ft 346 kts 237°
2026-04-25 19:36 53.62400 9.52750 16032 ft 361 kts 227°
2026-04-25 19:36 53.60284 9.50340 16852 ft 370 kts 220°
2026-04-25 19:36 53.58021 9.48185 17736 ft 377 kts 217°
2026-04-25 19:37 53.55697 9.46158 18497 ft 384 kts 216°
2026-04-25 19:37 53.53294 9.44119 19171 ft 389 kts 216°
2026-04-25 19:37 53.50865 9.42046 19863 ft 393 kts 216°
2026-04-25 19:37 53.48425 9.39928 20563 ft 396 kts 216°
2026-04-25 19:38 53.45966 9.37758 21263 ft 399 kts 217°
2026-04-25 19:38 53.43499 9.35553 21958 ft 403 kts 217°
2026-04-25 19:38 53.41014 9.33318 22622 ft 407 kts 217°
2026-04-25 19:38 53.38544 9.31091 23275 ft 410 kts 217°
2026-04-25 19:39 53.36010 9.28805 23827 ft 414 kts 216°
2026-04-25 19:39 53.33473 9.26523 24070 ft 414 kts 215°
2026-04-25 19:39 53.30928 9.24241 24122 ft 415 kts 215°
2026-04-25 19:39 53.28375 9.21957 24131 ft 416 kts 215°
2026-04-25 19:40 53.25814 9.19669 24133 ft 416 kts 215°
2026-04-25 19:40 53.23259 9.17388 24135 ft 416 kts 215°
2026-04-25 19:40 53.20699 9.15106 24139 ft 416 kts 215°
2026-04-25 19:40 53.18177 9.12861 24142 ft 416 kts 215°
2026-04-25 19:41 53.15617 9.10585 24146 ft 416 kts 215°
2026-04-25 19:41 53.13059 9.08313 24148 ft 416 kts 215°
2026-04-25 19:41 53.10490 9.06034 24150 ft 416 kts 215°
2026-04-25 19:41 53.08799 9.04537 24152 ft 417 kts 215°
2026-04-25 19:42 53.05395 9.01525 24151 ft 417 kts 215°
2026-04-25 19:42 53.03666 8.99998 24153 ft 417 kts 215°
2026-04-25 19:42 53.02110 8.98624 24153 ft 418 kts 215°
2026-04-25 19:42 52.99490 8.96295 24149 ft 437 kts 215°
2026-04-25 19:43 52.96763 8.93845 24151 ft 453 kts 215°
2026-04-25 19:43 52.93945 8.91301 24148 ft 468 kts 215°
2026-04-25 19:43 52.91047 8.88682 24133 ft 480 kts 214°
2026-04-25 19:43 52.90052 8.87786 24140 ft 481 kts 214°
2026-04-25 19:44 52.87251 8.85276 24150 ft 486 kts 214°
2026-04-25 19:44 52.84259 8.82611 24148 ft 492 kts 214°
2026-04-25 19:44 52.81228 8.79927 24152 ft 494 kts 213°
2026-04-25 19:44 52.78191 8.77258 24149 ft 494 kts 213°
2026-04-25 19:45 52.75147 8.74597 24151 ft 495 kts 213°
2026-04-25 19:45 52.72136 8.71976 24148 ft 495 kts 213°
2026-04-25 19:45 52.69083 8.69328 24151 ft 495 kts 213°
2026-04-25 19:45 52.66034 8.66686 24153 ft 495 kts 212°
2026-04-25 19:46 52.62984 8.64049 24139 ft 494 kts 212°
2026-04-25 19:46 52.59930 8.61413 24147 ft 494 kts 212°
2026-04-25 19:46 52.56886 8.58789 24161 ft 494 kts 212°
2026-04-25 19:46 52.53870 8.56194 24135 ft 494 kts 212°
2026-04-25 19:47 52.50820 8.53574 23917 ft 493 kts 212°
2026-04-25 19:47 52.47780 8.50966 23434 ft 491 kts 212°
2026-04-25 19:47 52.44749 8.48368 22892 ft 489 kts 212°
2026-04-25 19:47 52.41749 8.45796 22353 ft 485 kts 212°
2026-04-25 19:48 52.38755 8.43234 21860 ft 480 kts 212°
2026-04-25 19:48 52.35834 8.40740 21360 ft 477 kts 212°
2026-04-25 19:48 52.32907 8.38247 20891 ft 474 kts 212°
2026-04-25 19:48 52.29991 8.35768 20436 ft 471 kts 212°
2026-04-25 19:49 52.27085 8.33302 20190 ft 469 kts 212°
2026-04-25 19:49 52.26101 8.32468 20167 ft 469 kts 212°
2026-04-25 19:49 52.21282 8.28416 20156 ft 467 kts 210°
2026-04-25 19:49 52.18563 8.25623 20148 ft 457 kts 227°
2026-04-25 19:50 52.15939 8.16833 20166 ft 433 kts 266°
2026-04-25 19:50 52.15716 8.11955 20160 ft 431 kts 271°
2026-04-25 19:50 52.15535 8.07075 20163 ft 433 kts 269°
2026-04-25 19:51 52.15178 8.02185 20158 ft 435 kts 265°
2026-04-25 19:51 52.14604 7.97332 20161 ft 437 kts 261°
2026-04-25 19:51 52.13853 7.92529 20159 ft 438 kts 258°
2026-04-25 19:51 52.12987 7.87767 20148 ft 439 kts 257°
2026-04-25 19:52 52.12054 7.83000 20155 ft 440 kts 256°
2026-04-25 19:52 52.11113 7.78323 20155 ft 441 kts 255°
2026-04-25 19:52 52.10152 7.73574 20157 ft 441 kts 256°
2026-04-25 19:52 52.09195 7.68816 20156 ft 441 kts 256°
2026-04-25 19:53 52.08248 7.64070 20159 ft 441 kts 256°
2026-04-25 19:53 52.07305 7.59317 20158 ft 441 kts 256°
2026-04-25 19:53 52.06375 7.54620 20158 ft 441 kts 256°
2026-04-25 19:53 52.05436 7.49873 20172 ft 441 kts 256°
2026-04-25 19:54 52.04493 7.45113 20165 ft 441 kts 256°
2026-04-25 19:54 52.03554 7.40382 20173 ft 440 kts 256°
2026-04-25 19:54 52.02609 7.35636 20158 ft 440 kts 256°
2026-04-25 19:54 52.02304 7.34104 20114 ft 440 kts 255°
2026-04-25 19:55 52.00741 7.26296 19348 ft 436 kts 255°
2026-04-25 19:55 51.99812 7.21686 18750 ft 421 kts 255°
2026-04-25 19:55 51.98903 7.17245 18132 ft 405 kts 255°
2026-04-25 19:55 51.98017 7.12980 17486 ft 392 kts 255°
2026-04-25 19:56 51.96849 7.09004 16838 ft 394 kts 240°
2026-04-25 19:56 51.95166 7.05481 16204 ft 394 kts 234°
2026-04-25 19:56 51.93423 7.02138 15592 ft 391 kts 234°
2026-04-25 19:56 51.91690 6.98760 14979 ft 386 kts 235°
2026-04-25 19:57 51.90035 6.95475 14388 ft 363 kts 236°
2026-04-25 19:57 51.88497 6.92406 13795 ft 341 kts 236°
2026-04-25 19:57 51.86949 6.89537 13141 ft 336 kts 232°
2026-04-25 19:57 51.85878 6.87721 12711 ft 337 kts 230°
2026-04-25 19:58 51.84237 6.85061 12072 ft 339 kts 229°
2026-04-25 19:58 51.82536 6.82407 11446 ft 338 kts 227°
2026-04-25 19:58 51.80832 6.79813 10829 ft 334 kts 226°
2026-04-25 19:58 51.79139 6.77274 10241 ft 329 kts 226°
2026-04-25 19:59 51.77460 6.74781 9589 ft 324 kts 226°
2026-04-25 19:59 51.75810 6.72346 8929 ft 319 kts 226°
2026-04-25 19:59 51.74197 6.69970 8312 ft 316 kts 226°
2026-04-25 19:59 51.72571 6.67579 7684 ft 314 kts 225°
2026-04-25 20:00 51.70961 6.65214 7069 ft 312 kts 225°
2026-04-25 20:00 51.70418 6.64417 6863 ft 311 kts 225°
2026-04-25 20:00 51.67766 6.60527 5809 ft 307 kts 225°
2026-04-25 20:00 51.66211 6.58248 5192 ft 304 kts 225°
2026-04-25 20:01 51.63100 6.53697 4118 ft 298 kts 225°
2026-04-25 20:01 51.61579 6.51476 3998 ft 288 kts 225°
2026-04-25 20:01 51.60146 6.49419 3995 ft 263 kts 226°
2026-04-25 20:02 51.58863 6.47508 4011 ft 240 kts 225°
2026-04-25 20:02 51.57648 6.45849 4016 ft 221 kts 223°
2026-04-25 20:02 51.56715 6.44052 3908 ft 205 kts 251°
2026-04-25 20:02 51.56617 6.41889 3513 ft 192 kts 288°
2026-04-25 20:03 51.56765 6.41207 3340 ft 191 kts 296°
2026-04-25 20:03 51.57348 6.39446 3041 ft 182 kts 302°
2026-04-25 20:03 51.58033 6.37880 3019 ft 166 kts 310°
2026-04-25 20:03 51.58757 6.36448 2996 ft 165 kts 311°
2026-04-25 20:04 51.59463 6.34985 2921 ft 165 kts 303°
2026-04-25 20:04 51.59858 6.33240 2424 ft 169 kts 282°
2026-04-25 20:04 51.59938 6.31404 2066 ft 164 kts 275°
2026-04-25 20:04 51.59951 6.29601 1795 ft 158 kts 275°
2026-04-25 20:05 51.59969 6.27840 1574 ft 155 kts 276°
2026-04-25 20:05 51.60000 6.25658 1298 ft 149 kts 277°
2026-04-25 20:05 51.60042 6.23990 1094 ft 148 kts 277°
2026-04-25 20:06 51.60074 6.22333 905 ft 148 kts 274°
2026-04-25 20:06 51.60113 6.20680 684 ft 147 kts 278°
2026-04-25 20:06 51.60133 6.19019 460 ft 147 kts 274°
2026-04-25 20:06 51.60170 6.17416 334 ft 140 kts 275°
2026-04-25 20:07 51.60206 6.15898 148 ft 135 kts 274°
2026-04-25 20:07 51.60243 6.14507 106 ft 109 kts 272°
2026-04-25 20:07 51.60259 6.13783 108 ft 47 kts 271°
2026-04-25 20:07 51.60269 6.13306 106 ft 42 kts 272°
2026-04-25 20:08 51.60270 6.12973 102 ft 1 kts 257°
2026-04-25 20:08 51.60262 6.12968 102 ft 5 kts 198°
2026-04-25 20:08 51.60206 6.12954 103 ft 3 kts 183°
2026-04-25 20:08 51.60186 6.12953 103 ft 3 kts 183°
2026-04-25 20:09 51.60105 6.12950 104 ft 8 kts 166°
2026-04-25 20:09 51.60083 6.13030 104 ft 12 kts 88°
2026-04-25 20:09 51.60079 6.13156 104 ft 23 kts 92°
2026-04-25 20:09 51.60072 6.13434 105 ft 25 kts 92°
2026-04-25 20:10 51.60066 6.13723 106 ft 26 kts 92°
2026-04-25 20:10 51.60058 6.14123 107 ft 28 kts 91°
2026-04-25 20:10 51.60052 6.14334 108 ft 28 kts 92°
2026-04-25 20:10 51.60048 6.14509 108 ft 7 kts 92°
2026-04-25 20:11 51.60046 6.14559 108 ft 0 kts 101°
2026-04-25 20:11 51.60046 6.14577 108 ft 4 kts 90°
2026-04-25 20:12 51.60048 6.14657 108 ft 10 kts 87°
2026-04-25 20:12 51.60044 6.14786 109 ft 1 kts 110°
2026-04-25 20:12 51.60018 6.14801 109 ft 13 kts 178°
2026-04-25 20:12 51.59997 6.14807 108 ft 4 kts 139°
2026-04-25 20:13 51.59995 6.14836 109 ft 3 kts 87°
2026-04-25 20:13 51.59996 6.14848 109 ft 0 kts 87°